Madison, SD

3:09 PM CST on November 16, 2019 (GMT -0600)
Madison Municipal

Weather History for KMDS - September, 2019

Change the Weather History Date:

Thursday, September 26, 2019

  Actual Average Record
Temperature  
Mean Temperature 54 °F -  
Max Temperature 64 °F 70 °F 84 °F (2013)
Min Temperature 44 °F 42 °F 35 °F (2011)
Degree Days  
Heating Degree Days 11    
Growing Degree Days 4 (Base 50)    
Moisture  
Dew Point 47 °F    
Average Humidity 76    
Maximum Humidity 100    
Minimum Humidity 45    
Precipitation  
Precipitation 0.00 in - - ()
Sea Level Pressure  
Sea Level Pressure 29.84 in    
Wind  
Wind Speed 10 mph ()    
Max Wind Speed 25 mph    
Max Gust Speed 32 mph    
Visibility 10.0 miles    
Events      
Averages and records for this station are not official NWS values.
T = Trace of Precipitation, MM = Missing Value Source: Averaged Metar Reports

Daily Weather History Graph

Daily Weather History Graph

Search for Another Location

Airport or City:

Astronomy

Sep. 26, 2019 Rise Set
Actual Time 7:19 AM CDT 7:18 PM CDT
Civil Twilight 6:51 AM CDT 7:47 PM CDT
Nautical Twilight 6:17 AM CDT 8:21 PM CDT
Astronomical Twilight 5:43 AM CDT 8:55 PM CDT
Moon 4:19 AM CDT (9/26) 6:39 PM CDT (9/26)
Length of Visible Light 12h 56m
Length of Day
11h 58m
Waning Crescent, 6% of the Moon is Illuminated
Sep 26
Waning Crescent
Sep 28
New
Oct 5
First Quarter
Oct 13
Full
Oct 21
Last Quarter

Hourly Weather History & Observations

Time (CDT) Temp. Windchill Dew Point Humidity Pressure Visibility Wind Dir Wind Speed Gust Speed Precip Events Conditions
12:00 AM 50.0 °F - 50.0 °F 100% 29.99 in 10.0 mi West 9.2 mph - N/A   Clear
12:15 AM 50.0 °F - 50.0 °F 100% 29.99 in 10.0 mi West 10.4 mph - N/A   Clear
12:20 AM 50.0 °F - 50.0 °F 100% 30.00 in 10.0 mi West 9.2 mph - N/A   Clear
12:35 AM 50.0 °F - 50.0 °F 100% 30.00 in 10.0 mi West 8.1 mph - N/A   Clear
12:55 AM 50.0 °F - 50.0 °F 100% 30.00 in 10.0 mi West 8.1 mph - N/A   Clear
1:15 AM 48.2 °F - 48.2 °F 100% 29.99 in 10.0 mi WNW 8.1 mph - N/A   Clear
1:35 AM 48.2 °F - 48.2 °F 100% 29.98 in 10.0 mi West 5.8 mph - N/A   Clear
1:40 AM 48.2 °F - 48.2 °F 100% 29.98 in 10.0 mi West 5.8 mph - N/A   Clear
1:55 AM 48.2 °F - 48.2 °F 100% 29.98 in 10.0 mi West 8.1 mph - N/A   Clear
2:00 AM 48.2 °F - 48.2 °F 100% 29.98 in 10.0 mi WNW 8.1 mph - N/A   Clear
2:15 AM 46.4 °F 42.4 °F 46.4 °F 100% 29.98 in 10.0 mi West 8.1 mph - N/A   Clear
2:35 AM 46.4 °F 42.9 °F 46.4 °F 100% 29.98 in 10.0 mi West 6.9 mph - N/A   Clear
2:40 AM 46.4 °F 42.9 °F 46.4 °F 100% 29.98 in 10.0 mi West 6.9 mph - N/A   Clear
2:55 AM 46.4 °F 42.9 °F 46.4 °F 100% 29.97 in 10.0 mi West 6.9 mph - N/A   Clear
3:15 AM 46.4 °F 42.9 °F 46.4 °F 100% 29.97 in 10.0 mi West 6.9 mph - N/A   Clear
3:20 AM 46.4 °F 42.4 °F 46.4 °F 100% 29.97 in 10.0 mi West 8.1 mph - N/A   Clear
3:35 AM 46.4 °F 42.4 °F 46.4 °F 100% 29.97 in 10.0 mi West 8.1 mph - N/A   Clear
3:40 AM 46.4 °F 42.9 °F 46.4 °F 100% 29.97 in 10.0 mi West 6.9 mph - N/A   Clear
3:55 AM 46.4 °F 41.9 °F 46.4 °F 100% 29.97 in 10.0 mi West 9.2 mph - N/A   Clear
4:15 AM 46.4 °F 42.4 °F 46.4 °F 100% 29.97 in 10.0 mi WSW 8.1 mph - N/A   Clear
4:35 AM 46.4 °F 41.9 °F 46.4 °F 100% 29.98 in 10.0 mi WSW 9.2 mph - N/A   Clear
4:55 AM 46.4 °F 43.5 °F 46.4 °F 100% 29.98 in 10.0 mi West 5.8 mph - N/A   Clear
5:00 AM 46.4 °F 43.5 °F 46.4 °F 100% 29.98 in 10.0 mi West 5.8 mph - N/A   Clear
5:15 AM 46.4 °F 42.4 °F 46.4 °F 100% 29.98 in 10.0 mi West 8.1 mph - N/A   Clear
5:20 AM 46.4 °F 42.4 °F 46.4 °F 100% 29.98 in 10.0 mi WSW 8.1 mph - N/A   Clear
5:35 AM 46.4 °F 41.5 °F 46.4 °F 100% 29.97 in 10.0 mi SW 10.4 mph - N/A   Clear
5:55 AM 46.4 °F 41.9 °F 46.4 °F 100% 29.98 in 10.0 mi WSW 9.2 mph - N/A   Clear
6:15 AM 44.6 °F 40.2 °F 44.6 °F 100% 29.98 in 10.0 mi WSW 8.1 mph - N/A   Clear
6:20 AM 44.6 °F 40.2 °F 44.6 °F 100% 29.98 in 10.0 mi SW 8.1 mph - N/A   Clear
6:35 AM 44.6 °F 40.7 °F 44.6 °F 100% 29.97 in 10.0 mi WSW 6.9 mph - N/A   Clear
6:55 AM 44.6 °F 40.2 °F 44.6 °F 100% 29.98 in 10.0 mi WSW 8.1 mph - N/A   Clear
7:00 AM 44.6 °F 40.7 °F 44.6 °F 100% 29.98 in 10.0 mi WSW 6.9 mph - N/A   Clear
7:15 AM 44.6 °F 40.7 °F 44.6 °F 100% 29.98 in 10.0 mi SW 6.9 mph - N/A   Clear
7:20 AM 44.6 °F 40.7 °F 44.6 °F 100% 29.98 in 10.0 mi SW 6.9 mph - N/A   Clear
7:35 AM 44.6 °F 40.7 °F 44.6 °F 100% 29.98 in 10.0 mi WSW 6.9 mph - N/A   Clear
7:55 AM 46.4 °F 42.9 °F 46.4 °F 100% 29.97 in 10.0 mi WSW 6.9 mph - N/A   Clear
8:00 AM 46.4 °F 42.4 °F 46.4 °F 100% 29.97 in 10.0 mi WSW 8.1 mph - N/A   Clear
8:15 AM 48.2 °F - 48.2 °F 100% 29.96 in 10.0 mi WSW 6.9 mph - N/A   Clear
8:20 AM 48.2 °F - 48.2 °F 100% 29.96 in 10.0 mi WSW 6.9 mph - N/A   Clear
8:35 AM 50.0 °F - 50.0 °F 100% 29.96 in 10.0 mi SW 6.9 mph - N/A   Clear
8:55 AM 50.0 °F - 50.0 °F 100% 29.97 in 10.0 mi SW 8.1 mph - N/A   Clear
9:00 AM 50.0 °F - 50.0 °F 100% 29.97 in 10.0 mi WSW 10.4 mph - N/A   Clear
9:15 AM 50.0 °F - 48.2 °F 94% 29.97 in 10.0 mi WSW 11.5 mph - N/A   Clear
9:20 AM 50.0 °F - 48.2 °F 94% 29.97 in 10.0 mi WSW 6.9 mph - N/A   Clear
9:35 AM 51.8 °F - 50.0 °F 94% 29.97 in 10.0 mi WSW 5.8 mph - N/A   Clear
9:55 AM 53.6 °F - 50.0 °F 88% 29.96 in 10.0 mi SW 8.1 mph - N/A   Clear
10:15 AM 55.4 °F - 48.2 °F 77% 29.96 in 10.0 mi SW 8.1 mph - N/A   Clear
10:20 AM 57.2 °F - 48.2 °F 72% 29.96 in 10.0 mi SW 9.2 mph - N/A   Clear
10:35 AM 59.0 °F - 46.4 °F 63% 29.96 in 10.0 mi SW 11.5 mph - N/A   Clear
10:55 AM 59.0 °F - 44.6 °F 59% 29.95 in 10.0 mi WSW 11.5 mph - N/A   Clear
11:00 AM 59.0 °F - 44.6 °F 59% 29.95 in 10.0 mi SW 12.7 mph - N/A   Clear
11:15 AM 62.6 °F - 44.6 °F 52% 29.94 in 10.0 mi SW 12.7 mph - N/A   Clear
11:20 AM 62.6 °F - 42.8 °F 48% 29.93 in 10.0 mi SW 13.8 mph - N/A   Clear
11:35 AM 62.6 °F - 42.8 °F 48% 29.93 in 10.0 mi SW 13.8 mph 19.6 mph N/A   Clear
11:55 AM 62.6 °F - 42.8 °F 48% 29.92 in 10.0 mi SW 13.8 mph - N/A   Clear
12:00 PM 62.6 °F - 44.6 °F 52% 29.91 in 10.0 mi SSW 11.5 mph 21.9 mph N/A   Clear
12:15 PM 62.6 °F - 42.8 °F 48% 29.90 in 10.0 mi SW 13.8 mph 19.6 mph N/A   Clear
12:20 PM 64.4 °F - 42.8 °F 45% 29.90 in 10.0 mi SW 12.7 mph 19.6 mph N/A   Partly Cloudy
12:35 PM 64.4 °F - 42.8 °F 45% 29.89 in 10.0 mi SW 15.0 mph 18.4 mph N/A   Partly Cloudy
12:55 PM 64.4 °F - 46.4 °F 52% 29.88 in 10.0 mi SSW 17.3 mph - N/A   Scattered Clouds
1:00 PM 64.4 °F - 46.4 °F 52% 29.88 in 10.0 mi SSW 18.4 mph 25.3 mph N/A   Scattered Clouds
1:15 PM 64.4 °F - 46.4 °F 52% 29.86 in 10.0 mi SSW 17.3 mph 23.0 mph N/A   Mostly Cloudy
1:20 PM 64.4 °F - 48.2 °F 56% 29.86 in 10.0 mi South 18.4 mph 23.0 mph N/A   Mostly Cloudy
1:35 PM 64.4 °F - 46.4 °F 52% 29.85 in 10.0 mi South 15.0 mph 21.9 mph N/A   Mostly Cloudy
1:55 PM 64.4 °F - 44.6 °F 49% 29.84 in 10.0 mi South 17.3 mph 25.3 mph N/A   Scattered Clouds
2:00 PM 64.4 °F - 44.6 °F 49% 29.83 in 10.0 mi SSW 17.3 mph 24.2 mph N/A   Scattered Clouds
2:15 PM 64.4 °F - 42.8 °F 45% 29.82 in 10.0 mi SSW 16.1 mph - N/A   Mostly Cloudy
2:20 PM 64.4 °F - 44.6 °F 49% 29.82 in 10.0 mi SSW 18.4 mph - N/A   Mostly Cloudy
2:35 PM 64.4 °F - 44.6 °F 49% 29.81 in 10.0 mi SSW 15.0 mph 21.9 mph N/A   Mostly Cloudy
2:55 PM 62.6 °F - 42.8 °F 48% 29.79 in 10.0 mi SSW 13.8 mph - N/A   Mostly Cloudy
3:15 PM 62.6 °F - 44.6 °F 52% 29.78 in 10.0 mi South 15.0 mph - N/A   Overcast
3:35 PM 62.6 °F - 46.4 °F 55% 29.76 in 10.0 mi South 15.0 mph - N/A   Overcast
3:55 PM 62.6 °F - 44.6 °F 52% 29.73 in 10.0 mi South 19.6 mph 24.2 mph N/A   Overcast
4:00 PM 62.6 °F - 44.6 °F 52% 29.73 in 10.0 mi South 17.3 mph 24.2 mph N/A   Overcast
4:15 PM 62.6 °F - 44.6 °F 52% 29.71 in 10.0 mi South 18.4 mph 27.6 mph N/A   Overcast
4:20 PM 62.6 °F - 44.6 °F 52% 29.71 in 10.0 mi South 17.3 mph 27.6 mph N/A   Overcast
4:35 PM 62.6 °F - 44.6 °F 52% 29.69 in 10.0 mi South 18.4 mph - N/A   Overcast
4:55 PM 62.6 °F - 44.6 °F 52% 29.69 in 10.0 mi South 24.2 mph - N/A   Overcast
5:00 PM 62.6 °F - 44.6 °F 52% 29.69 in 10.0 mi South 18.4 mph 26.5 mph N/A   Overcast
5:15 PM 64.4 °F - 44.6 °F 49% 29.68 in 10.0 mi South 23.0 mph 28.8 mph N/A   Mostly Cloudy
5:35 PM 62.6 °F - 44.6 °F 52% 29.65 in 10.0 mi South 25.3 mph 32.2 mph N/A   Clear
5:55 PM 62.6 °F - 44.6 °F 52% 29.65 in 10.0 mi South 23.0 mph 31.1 mph N/A   Clear
6:00 PM 62.6 °F - 44.6 °F 52% 29.65 in 10.0 mi South 17.3 mph 28.8 mph N/A   Clear
6:15 PM 62.6 °F - 44.6 °F 52% 29.65 in 10.0 mi South 17.3 mph 27.6 mph N/A   Clear
6:35 PM 62.6 °F - 46.4 °F 55% 29.65 in 10.0 mi South 17.3 mph 24.2 mph N/A   Clear
6:40 PM 60.8 °F - 46.4 °F 59% 29.65 in 10.0 mi South 17.3 mph 24.2 mph N/A   Clear
6:55 PM 60.8 °F - 46.4 °F 59% 29.65 in 10.0 mi South 17.3 mph 24.2 mph N/A   Clear
7:00 PM 59.0 °F - 46.4 °F 63% 29.65 in 10.0 mi South 16.1 mph - N/A   Clear
7:15 PM 59.0 °F - 46.4 °F 63% 29.64 in 10.0 mi South 16.1 mph - N/A   Clear
7:20 PM 59.0 °F - 46.4 °F 63% 29.64 in 10.0 mi South 13.8 mph - N/A   Clear
7:35 PM 59.0 °F - 46.4 °F 63% 29.63 in 10.0 mi South 15.0 mph - N/A   Clear
7:40 PM 59.0 °F - 46.4 °F 63% 29.63 in 10.0 mi South 13.8 mph - N/A   Clear
7:55 PM 57.2 °F - 46.4 °F 67% 29.64 in 10.0 mi South 11.5 mph - N/A   Clear
8:00 PM 57.2 °F - 46.4 °F 67% 29.64 in 10.0 mi South 10.4 mph - N/A   Clear
8:15 PM 57.2 °F - 48.2 °F 72% 29.64 in 10.0 mi South 10.4 mph - N/A   Clear
8:35 PM 57.2 °F - 48.2 °F 72% 29.63 in 10.0 mi SSE 10.4 mph - N/A   Clear
8:55 PM 57.2 °F - 48.2 °F 72% 29.62 in 10.0 mi South 13.8 mph - N/A   Clear
9:15 PM 57.2 °F - 48.2 °F 72% 29.62 in 10.0 mi SSE 10.4 mph - N/A   Clear
9:35 PM 55.4 °F - 48.2 °F 77% 29.61 in 10.0 mi South 12.7 mph 17.3 mph N/A   Clear
9:40 PM 57.2 °F - 48.2 °F 72% 29.61 in 10.0 mi South 13.8 mph 18.4 mph N/A   Clear
9:55 PM 57.2 °F - 48.2 °F 72% 29.59 in 10.0 mi South 17.3 mph 21.9 mph N/A   Clear
10:15 PM 57.2 °F - 48.2 °F 72% 29.59 in 10.0 mi South 13.8 mph 20.7 mph N/A   Clear
10:35 PM 57.2 °F - 50.0 °F 77% 29.59 in 10.0 mi South 15.0 mph - N/A   Clear
10:40 PM 57.2 °F - 50.0 °F 77% 29.58 in 10.0 mi South 15.0 mph 19.6 mph N/A   Clear
10:55 PM 57.2 °F - 50.0 °F 77% 29.58 in 10.0 mi South 13.8 mph 19.6 mph N/A   Clear
11:00 PM 57.2 °F - 50.0 °F 77% 29.58 in 10.0 mi South 15.0 mph 19.6 mph N/A   Clear
11:15 PM 57.2 °F - 50.0 °F 77% 29.59 in 10.0 mi South 11.5 mph - N/A   Clear
11:35 PM 59.0 °F - 50.0 °F 72% 29.58 in 10.0 mi South 12.7 mph 20.7 mph N/A   Clear
11:40 PM 59.0 °F - 50.0 °F 72% 29.58 in 10.0 mi South 13.8 mph - N/A   Clear
11:55 PM 59.0 °F - 50.0 °F 72% 29.57 in 10.0 mi South 13.8 mph 19.6 mph N/A   Clear